TimeCST,TemperatureF,Dew PointF,Humidity,Sea Level PressureIn,VisibilityMPH,Wind Direction,Wind SpeedMPH,Gust SpeedMPH,PrecipitationIn,Events,Conditions,WindDirDegrees,DateUTC
12:15 AM,59.0,57.2,94,30.18,3.0,Calm,Calm,-,N/A,,Overcast,0,2013-11-23 06:15:00
12:35 AM,59.0,57.2,94,30.18,3.0,NNW,3.5,-,N/A,,Mostly Cloudy,330,2013-11-23 06:35:00
12:55 AM,59.0,57.2,94,30.18,4.0,North,3.5,-,N/A,,Mostly Cloudy,350,2013-11-23 06:55:00
1:15 AM,59.0,57.2,94,30.18,4.0,Calm,Calm,-,N/A,,Mostly Cloudy,0,2013-11-23 07:15:00
1:35 AM,59.0,55.4,88,30.18,3.0,WNW,3.5,-,N/A,,Mostly Cloudy,300,2013-11-23 07:35:00
1:55 AM,59.0,55.4,88,30.18,3.0,WNW,3.5,-,N/A,,Overcast,290,2013-11-23 07:55:00
2:15 AM,59.0,57.2,94,30.18,3.0,NNW,4.6,-,N/A,,Overcast,330,2013-11-23 08:15:00
2:35 AM,59.0,57.2,94,30.18,3.0,NNW,5.8,-,N/A,,Overcast,330,2013-11-23 08:35:00
2:55 AM,59.0,57.2,94,30.17,3.0,NNW,6.9,-,N/A,,Overcast,340,2013-11-23 08:55:00
3:15 AM,59.0,55.4,88,30.17,5.0,North,8.1,-,N/A,,Overcast,350,2013-11-23 09:15:00
3:35 AM,59.0,55.4,88,30.16,4.0,North,5.8,-,N/A,,Overcast,360,2013-11-23 09:35:00
3:55 AM,59.0,55.4,88,30.16,6.0,NNW,6.9,-,N/A,,Overcast,340,2013-11-23 09:55:00
4:15 AM,59.0,55.4,88,30.16,7.0,North,9.2,-,N/A,,Overcast,350,2013-11-23 10:15:00
4:35 AM,59.0,55.4,88,30.17,5.0,NNW,5.8,-,N/A,,Overcast,340,2013-11-23 10:35:00
4:55 AM,59.0,55.4,88,30.17,7.0,NNW,5.8,-,N/A,,Overcast,340,2013-11-23 10:55:00
5:15 AM,59.0,55.4,88,30.17,5.0,North,5.8,-,N/A,,Overcast,350,2013-11-23 11:15:00
5:35 AM,59.0,55.4,88,30.17,7.0,North,4.6,-,N/A,,Overcast,360,2013-11-23 11:35:00
5:55 AM,57.2,55.4,94,30.17,7.0,NNE,3.5,-,N/A,,Overcast,20,2013-11-23 11:55:00
6:15 AM,57.2,55.4,94,30.17,6.0,Calm,Calm,-,N/A,,Overcast,0,2013-11-23 12:15:00
6:35 AM,57.2,55.4,94,30.18,5.0,NW,3.5,-,N/A,,Overcast,320,2013-11-23 12:35:00
6:55 AM,57.2,55.4,94,30.18,5.0,NNW,3.5,-,N/A,,Overcast,330,2013-11-23 12:55:00
7:15 AM,57.2,55.4,94,30.19,5.0,NNW,6.9,-,N/A,,Overcast,340,2013-11-23 13:15:00
7:35 AM,59.0,55.4,88,30.20,7.0,North,11.5,-,N/A,,Overcast,350,2013-11-23 13:35:00
7:55 AM,57.2,55.4,94,30.21,7.0,NNW,10.4,-,N/A,,Overcast,340,2013-11-23 13:55:00
8:15 AM,57.2,53.6,88,30.21,5.0,North,10.4,-,N/A,,Overcast,350,2013-11-23 14:15:00
8:35 AM,57.2,53.6,88,30.22,10.0,North,11.5,-,N/A,,Overcast,350,2013-11-23 14:35:00
8:55 AM,57.2,53.6,88,30.23,10.0,NNW,10.4,16.1,N/A,,Overcast,340,2013-11-23 14:55:00
9:15 AM,57.2,51.8,82,30.23,10.0,North,9.2,-,N/A,,Overcast,350,2013-11-23 15:15:00
9:35 AM,57.2,53.6,88,30.23,10.0,NNW,11.5,-,N/A,,Overcast,340,2013-11-23 15:35:00
9:55 AM,57.2,51.8,82,30.22,10.0,NNW,12.7,18.4,N/A,,Overcast,340,2013-11-23 15:55:00
10:15 AM,57.2,51.8,82,30.22,10.0,North,13.8,-,N/A,,Overcast,350,2013-11-23 16:15:00
10:35 AM,57.2,51.8,82,30.21,10.0,North,10.4,20.7,N/A,,Overcast,360,2013-11-23 16:35:00
10:55 AM,57.2,50.0,77,30.22,10.0,NNW,13.8,18.4,N/A,,Overcast,340,2013-11-23 16:55:00
11:15 AM,57.2,50.0,77,30.21,10.0,North,10.4,16.1,N/A,,Overcast,350,2013-11-23 17:15:00
11:35 AM,57.2,50.0,77,30.19,10.0,North,8.1,-,N/A,,Overcast,360,2013-11-23 17:35:00
11:55 AM,57.2,48.2,72,30.19,10.0,NNW,11.5,-,N/A,,Overcast,340,2013-11-23 17:55:00
12:15 PM,57.2,48.2,72,30.19,10.0,NNW,11.5,-,N/A,,Overcast,340,2013-11-23 18:15:00
12:35 PM,57.2,48.2,72,30.18,10.0,North,11.5,16.1,N/A,,Overcast,360,2013-11-23 18:35:00
12:55 PM,57.2,46.4,67,30.18,10.0,NNW,10.4,17.3,N/A,,Overcast,340,2013-11-23 18:55:00
1:15 PM,57.2,46.4,67,30.17,10.0,NW,9.2,-,N/A,,Overcast,320,2013-11-23 19:15:00
1:35 PM,57.2,46.4,67,30.17,10.0,NW,9.2,-,N/A,,Overcast,310,2013-11-23 19:35:00
1:55 PM,57.2,46.4,67,30.18,10.0,NNW,10.4,17.3,N/A,,Overcast,340,2013-11-23 19:55:00
2:15 PM,57.2,46.4,67,30.18,10.0,NNW,9.2,-,N/A,,Overcast,330,2013-11-23 20:15:00
2:35 PM,57.2,46.4,67,30.18,10.0,NNW,10.4,-,N/A,,Overcast,340,2013-11-23 20:35:00
2:55 PM,57.2,46.4,67,30.19,10.0,NNW,9.2,-,N/A,,Overcast,340,2013-11-23 20:55:00
3:15 PM,57.2,44.6,63,30.19,10.0,North,11.5,-,N/A,,Overcast,360,2013-11-23 21:15:00
3:35 PM,57.2,44.6,63,30.19,10.0,North,9.2,-,N/A,,Mostly Cloudy,360,2013-11-23 21:35:00
3:55 PM,55.4,44.6,67,30.20,10.0,NNW,11.5,-,N/A,,Mostly Cloudy,330,2013-11-23 21:55:00
4:15 PM,55.4,42.8,63,30.20,10.0,NNW,16.1,20.7,N/A,,Overcast,340,2013-11-23 22:15:00
4:35 PM,53.6,41.0,62,30.21,10.0,North,10.4,20.7,N/A,,Overcast,350,2013-11-23 22:35:00
4:55 PM,53.6,41.0,62,30.22,10.0,NNW,16.1,20.7,N/A,,Mostly Cloudy,340,2013-11-23 22:55:00
5:15 PM,53.6,39.2,58,30.21,10.0,North,10.4,-,N/A,,Overcast,360,2013-11-23 23:15:00
5:35 PM,51.8,39.2,62,30.23,10.0,North,11.5,-,N/A,,Mostly Cloudy,350,2013-11-23 23:35:00
5:55 PM,51.8,39.2,62,30.24,10.0,NNW,15.0,21.9,N/A,,Mostly Cloudy,340,2013-11-23 23:55:00
6:15 PM,51.8,39.2,62,30.24,10.0,North,15.0,-,N/A,,Mostly Cloudy,350,2013-11-24 00:15:00
6:35 PM,50.0,39.2,66,30.24,10.0,North,13.8,-,N/A,,Mostly Cloudy,350,2013-11-24 00:35:00
6:55 PM,50.0,37.4,62,30.24,10.0,North,11.5,20.7,N/A,,Mostly Cloudy,350,2013-11-24 00:55:00
7:15 PM,50.0,35.6,58,30.25,10.0,NNW,11.5,19.6,N/A,,Overcast,340,2013-11-24 01:15:00
7:35 PM,48.2,33.8,58,30.25,10.0,North,10.4,24.2,N/A,,Overcast,350,2013-11-24 01:35:00
7:55 PM,48.2,33.8,58,30.26,10.0,North,15.0,20.7,N/A,,Overcast,360,2013-11-24 01:55:00
8:15 PM,48.2,33.8,58,30.25,10.0,North,13.8,21.9,N/A,,Scattered Clouds,360,2013-11-24 02:15:00
8:35 PM,46.4,32.0,57,30.26,10.0,North,12.7,17.3,N/A,,Clear,360,2013-11-24 02:35:00
8:55 PM,46.4,30.2,53,30.26,10.0,North,9.2,16.1,N/A,,Clear,360,2013-11-24 02:55:00
9:15 PM,46.4,30.2,53,30.26,10.0,North,12.7,-,N/A,,Clear,360,2013-11-24 03:15:00
9:35 PM,44.6,30.2,57,30.27,10.0,North,13.8,-,N/A,,Clear,360,2013-11-24 03:35:00
9:55 PM,44.6,28.4,53,30.27,10.0,North,9.2,19.6,N/A,,Clear,360,2013-11-24 03:55:00
10:15 PM,44.6,24.8,46,30.28,10.0,North,10.4,21.9,N/A,,Clear,10,2013-11-24 04:15:00
10:35 PM,42.8,26.6,53,30.28,10.0,North,10.4,-,N/A,,Clear,360,2013-11-24 04:35:00
10:55 PM,42.8,24.8,49,30.28,10.0,North,9.2,19.6,N/A,,Clear,360,2013-11-24 04:55:00
11:15 PM,42.8,24.8,49,30.28,10.0,North,8.1,-,N/A,,Clear,360,2013-11-24 05:15:00
11:35 PM,41.0,24.8,53,30.27,10.0,North,10.4,16.1,N/A,,Clear,360,2013-11-24 05:35:00
11:55 PM,41.0,24.8,53,30.27,10.0,North,12.7,19.6,N/A,,Clear,360,2013-11-24 05:55:00